{"data":{"norad_id":68096,"epoch":"2026-09-19T18:20:44.543616Z","epoch_age_seconds":119037,"freshness":"FRESH","line1":"1 68096U 26042AD  26262.76440444  .00018309  00000+0  55167-3 0  9991","line2":"2 68096  53.1612 353.3735 0000798  74.7246 285.3845 15.34401210 32069","mean_motion":15.3440121,"eccentricity":7.98e-5,"inclination_deg":53.1612,"raan_deg":353.3735,"arg_perigee_deg":74.7246,"mean_anomaly_deg":285.3845,"bstar":0.00055167,"rev_number":3206,"period_min":93.847684074754,"perigee_km":462.15374507029,"apogee_km":463.24554259865,"semimajor_km":6840.8366438345,"source":"CELESTRAK","updated_at":"2026-09-20T09:00:43.783964Z"}}